TimeMDT,TemperatureF,Dew PointF,Humidity,Sea Level PressureIn,VisibilityMPH,Wind Direction,Wind SpeedMPH,Gust SpeedMPH,PrecipitationIn,Events,Conditions,WindDirDegrees,DateUTC
12:53 AM,43.0,32.0,65,29.74,10.0,WSW,10.4,-,N/A,,Overcast,250,2013-04-29 06:53:00
1:53 AM,43.0,32.0,65,29.72,10.0,WSW,12.7,-,N/A,,Mostly Cloudy,250,2013-04-29 07:53:00
2:53 AM,36.0,28.9,76,29.73,10.0,West,9.2,-,N/A,,Clear,260,2013-04-29 08:53:00
3:53 AM,37.0,28.0,70,29.70,10.0,WSW,13.8,-,N/A,,Clear,250,2013-04-29 09:53:00
4:53 AM,36.0,28.0,73,29.71,-9999.0,West,9.2,-,N/A,,Clear,260,2013-04-29 10:53:00
5:53 AM,37.0,28.9,73,29.69,-9999.0,South,10.4,-,N/A,,Clear,190,2013-04-29 11:53:00
6:53 AM,45.0,27.0,49,29.66,-9999.0,SW,16.1,-,N/A,,Clear,230,2013-04-29 12:53:00
7:53 AM,51.1,25.0,36,29.65,10.0,WSW,12.7,-,N/A,,Clear,240,2013-04-29 13:53:00
8:53 AM,52.0,19.9,28,29.63,10.0,West,31.1,39.1,N/A,,Clear,260,2013-04-29 14:53:00
9:53 AM,57.0,18.0,22,29.64,10.0,WSW,25.3,33.4,N/A,,Clear,250,2013-04-29 15:53:00
10:53 AM,61.0,16.0,17,29.59,10.0,WSW,34.5,42.6,N/A,,Clear,250,2013-04-29 16:53:00
11:53 AM,64.0,14.0,14,29.58,10.0,WSW,31.1,41.4,N/A,,Clear,250,2013-04-29 17:53:00
12:53 PM,62.1,15.1,16,29.59,10.0,West,21.9,36.8,N/A,,Clear,260,2013-04-29 18:53:00
1:53 PM,64.9,17.1,16,29.53,10.0,WSW,29.9,39.1,N/A,,Clear,250,2013-04-29 19:53:00
2:53 PM,62.1,18.0,18,29.57,10.0,WSW,26.5,40.3,N/A,,Clear,250,2013-04-29 20:53:00
3:53 PM,63.0,19.0,18,29.55,10.0,WSW,24.2,32.2,N/A,,Clear,240,2013-04-29 21:53:00
4:53 PM,63.0,18.0,18,29.52,10.0,WSW,31.1,42.6,N/A,,Clear,250,2013-04-29 22:53:00
5:53 PM,61.0,17.1,18,29.52,10.0,WSW,25.3,35.7,N/A,,Clear,250,2013-04-29 23:53:00
6:53 PM,61.0,18.0,19,29.46,10.0,WSW,32.2,49.5,N/A,,Clear,250,2013-04-30 00:53:00
7:53 PM,59.0,18.0,20,29.45,10.0,West,25.3,35.7,N/A,,Clear,260,2013-04-30 01:53:00
8:53 PM,55.9,19.9,25,29.48,10.0,WSW,13.8,-,N/A,,Clear,250,2013-04-30 02:53:00
9:53 PM,48.9,21.9,35,29.50,10.0,SW,3.5,-,N/A,,Clear,220,2013-04-30 03:53:00
10:53 PM,51.1,21.9,32,29.47,10.0,West,13.8,-,N/A,,Clear,280,2013-04-30 04:53:00
11:53 PM,52.0,21.9,31,29.45,10.0,West,23.0,-,N/A,,Clear,260,2013-04-30 05:53:00